Flag for Switzerland Weather past 2 weeks in Cham, Zug, Switzerland

Now
84 °F

Pleasantly warm.


Feels Like: 83 °F
Forecast: 58 / 84 °F
Wind: 7 mph from Southwest

Location: Zurich Town / Ville.

Current Time: Aug 3, 2015 at 5:31:39 PM

Latest Report: Aug 3, 2015 at 4:00 PM


Visibility: N/A

Pressure: 29.96 "Hg

Humidity: 34%

Dew point: 53 °F

Location of ChamLocation

Historic Weather in Cham — Graph

°F

Cham temperature yesterday

Maximum temperature yesterday: 78 °F (at 5:00 PM)
Minimum temperature yesterday: 59 °F (at 7:00 AM)
Average temperature yesterday: 67 °F

Past Weeks' High & Low Weather Summary

 TemperatureHumidityPressure
High92 °F (Jul 21, 5:00 PM)98% (Jul 27, 2:00 AM)30.12 "Hg (Jul 27, 2:00 AM)
Low51 °F (Jul 31, 6:00 AM)31% (Jul 21, 7:00 PM)29.66 "Hg (Jul 24, 5:00 PM)
Average67 °F67%29.94 "Hg
* Reported Jul 19 4:00 PM — Aug 3 4:00 PM, Cham, Weather by CustomWeather, © 2015

Note: Actual official high and low records may vary slightly from our data, if they occured in-between our weather recording intervals... More about our weather records

Advertising

Cham weather history for previous 24 hours

 ConditionsComfort  
Time TempWeatherWind HumidityBarometerVisibility
4:00 PM
Mon, Aug 3
84 °FPleasantly warm.7 mph34%29.96 "HgN/A
3:00 PM84 °FPleasantly warm.9 mph34%29.97 "HgN/A
2:00 PM81 °FPleasantly warm.5 mph39%29.99 "HgN/A
1:00 PM80 °FWarm.7 mph50%30.01 "HgN/A
12:00 PM76 °FMild.5 mph56%30.03 "HgN/A
11:00 AM73 °FMild.2 mph67%30.05 "HgN/A
10:00 AM70 °FMild.3 mph71%30.06 "HgN/A
9:00 AM65 °FMild.2 mph80%30.07 "HgN/A
8:00 AM64 °FMild.1 mph83%30.07 "HgN/A
7:00 AM60 °FCool.1 mph91%30.07 "HgN/A
5:00 AM60 °FCool.1 mph89%30.05 "HgN/A
4:00 AM61 °FCool.No wind86%30.05 "HgN/A
3:00 AM62 °FCool.No wind81%30.05 "HgN/A
2:00 AM63 °FMild.1 mph75%30.05 "HgN/A
1:00 AM64 °FMild.1 mph72%30.05 "HgN/A
12:00 AM63 °FMild.3 mph75%30.05 "HgN/A
11:00 PM
Sun, Aug 2
67 °FMild.6 mph65%30.03 "HgN/A
10:00 PM67 °FMild.3 mph65%30.03 "HgN/A
9:00 PM70 °FMild.5 mph57%30.01 "HgN/A
8:00 PM73 °FPassing clouds.6 mph52%30.01 "HgN/A
7:00 PM76 °FMild.8 mph46%29.99 "HgN/A
6:00 PM77 °FWarm.7 mph44%29.99 "HgN/A
5:00 PM78 °FWarm.8 mph41%30.00 "HgN/A
Weather by CustomWeather, © 2015

See weather overviewHow to use our weather pages